Location: Pebble Beach Sunset Acres
(33.0837°N, 96.4508°W)
Time: 04:46:00
(UTC+00:00)

Sich 1 - Pass Details

Date: 03 July 2022
Orbit: 593 x 623 km, 82.5° (Epoch: 07 August)

Event Time Altitude Azimuth Distance (km) Brightness Sun altitude
Exits shadow 10:25:26 14° 218° (SW) 1,708 4.7 -10.8°
Maximum altitude 10:28:43 35° 280° (W) 975 3.7 -10.2°
Drops below altitude 10° 10:32:40 10° 347° (NNW) 1,944 5.9 -9.5°
Sets 10:35:02 0° 356° (N) 2,846 6.9 -9.1°
